Regional Weather Roundup
Issued by NWS

Home | Current Version | Previous Version | Text Only | Print | Product List | Glossary Off
Versions: 1 2 3 4 5 6 7 8 9 10 11 12 13 14 15 16 17 18 19 20 21 22 23 24 25 26 27 28 29 30 31 32 33 34 35 36 37 38 39 40 41 42 43 44 45 46 47 48 49 50

000
ASUS43 KLSX 191607
RWRMO

WEATHER SUMMARY FOR MISSOURI
NATIONAL WEATHER SERVICE SPRINGFIELD MO
1100 AM CDT FRI SEP 19 2014

NOTE: "FAIR" INDICATES FEW OR NO CLOUDS BELOW 12,000 FEET WITH NO
       SIGNIFICANT WEATHER AND/OR OBSTRUCTIONS TO VISIBILITY.
       CURRENT SKY AND/OR WEATHER CONDITIONS ARE NOT AVAILABLE FOR
       CHILLICOTHE AND FARMINGTON.

MOZ001>031-035>038-043-044-053-054-191700-
...NORTHERN AND WESTERN MISSOURI...

CITY           SKY/WX    TMP DP  RH WIND       PRES   REMARKS
KANSAS CTY INT CLOUDY    65  64  97 S9        30.03S FOG
KANSAS C DTWN  CLOUDY    67  63  87 S8        30.03S FOG
LEE`S SUMMIT   CLOUDY    65  62  90 S7        30.05S FOG
ST JOSEPH      CLOUDY    67  63  87 S9        30.02S
CHILLICOTHE      N/A     71  62  73 S9        30.06R
KIRKSVILLE       N/A     70  57  63 S12       30.07

$$
MOZ066>068-077>081-088>096-101>105-191700-
...SOUTHWEST MISSOURI...

CITY           SKY/WX    TMP DP  RH WIND       PRES   REMARKS
SPRINGFIELD    PTSUNNY   70  63  78 S9        30.07S
JOPLIN         SUNNY     74  66  76 S6        30.05R

$$
MOZ032>034-039>042-045>050-055>058-069>072-191700-
...CENTRAL MISSOURI...

CITY           SKY/WX    TMP DP  RH WIND       PRES   REMARKS
COLUMBIA       NOT AVBL
JEFFERSON CITY SUNNY     71  58  63 VRB6      30.08F
ROLLA          SUNNY     70  59  68 SE12      30.08F
SEDALIA        PTSUNNY   71  61  70 S12       30.07S
WHITEMAN AFB   CLOUDY    68  62  82 S10       30.05F
OSAGE BEACH    SUNNY     72  61  68 SE6       30.09S

$$
MOZ051-052-059>065-191700-
...EAST CENTRAL MISSOURI...

CITY           SKY/WX    TMP DP  RH WIND       PRES   REMARKS
ST LOUIS INTL  MOSUNNY   71  56  58 E7        30.11F
SPIRIT OF STL  SUNNY     70  57  63 CALM      30.10S
ST CHARLES     SUNNY     70  57  63 E6        30.10F

$$
MOZ072>076-082>087-097>100-106>115-191700-
...SOUTH CENTRAL AND SOUTHEAST MISSOURI...

CITY           SKY/WX    TMP DP  RH WIND       PRES   REMARKS
CAPE GIRARDEAU SUNNY     73  60  63 E5        30.09S
FARMINGTON     SUNNY     72  59  64 SW5       30.13R
POPLAR BLUFF   SUNNY     72  58  61 CALM      30.08R
WEST PLAINS    SUNNY     70  58  65 E6        30.10S

$$


USA.gov is the U.S. government's official web portal to all federal, state and local government web resources and services.